Time,TemperatureF,DewpointF,PressureIn,WindDirection,WindDirectionDegrees,WindSpeedMPH,WindSpeedGustMPH,Humidity,HourlyPrecipIn,Conditions,Clouds,dailyrainin,SoftwareType,DateUTC
2013-03-09 00:00:00,36.4,28.2,30.30,North,355,0.0,0.0,72,0.00,,CLR,0.00,VWS V14.01,2013-03-09 05:00:00,
2013-03-09 00:05:00,36.4,28.2,30.30,NW,315,0.0,1.0,72,0.00,,CLR,0.00,VWS V14.01,2013-03-09 05:05:00,
2013-03-09 00:10:00,36.4,27.9,30.30,NNW,340,0.0,2.0,71,0.00,,CLR,0.00,VWS V14.01,2013-03-09 05:10:00,
2013-03-09 00:15:00,36.4,27.9,30.30,NNW,340,0.0,2.0,71,0.00,,CLR,0.00,VWS V14.01,2013-03-09 05:15:00,
2013-03-09 00:20:00,36.6,27.8,30.30,NNE,24,0.0,2.0,70,0.00,,CLR,0.00,VWS V14.01,2013-03-09 05:20:00,
2013-03-09 00:25:00,36.8,28.0,30.31,NNE,24,0.0,2.0,70,0.00,,CLR,0.00,VWS V14.01,2013-03-09 05:25:00,
2013-03-09 00:30:00,36.8,27.6,30.31,NNE,24,0.0,0.0,69,0.00,,CLR,0.00,VWS V14.01,2013-03-09 05:30:00,
2013-03-09 00:35:00,36.9,27.7,30.31,NNW,332,0.0,1.0,69,0.00,,CLR,0.00,VWS V14.01,2013-03-09 05:35:00,
2013-03-09 00:40:00,36.9,27.7,30.31,NNW,329,0.0,1.0,69,0.00,,CLR,0.00,VWS V14.01,2013-03-09 05:40:00,
2013-03-09 00:45:00,36.9,27.7,30.31,NNW,329,0.0,1.0,69,0.00,,CLR,0.00,VWS V14.01,2013-03-09 05:45:00,
2013-03-09 00:50:00,36.8,27.6,30.31,NW,315,0.0,1.0,69,0.00,,CLR,0.00,VWS V14.01,2013-03-09 05:50:00,
2013-03-09 00:55:00,36.7,27.5,30.31,WNW,301,0.0,4.0,69,0.00,,CLR,0.00,VWS V14.01,2013-03-09 05:55:00,
2013-03-09 01:00:00,36.6,27.4,30.31,NNW,327,0.0,0.0,69,0.00,,CLR,0.00,VWS V14.01,2013-03-09 06:00:00,
2013-03-09 01:05:00,36.4,27.6,30.31,NNW,327,0.0,0.0,70,0.00,,CLR,0.00,VWS V14.01,2013-03-09 06:05:00,
2013-03-09 01:10:00,36.3,27.5,30.31,NW,326,0.0,0.0,70,0.00,,CLR,0.00,VWS V14.01,2013-03-09 06:10:00,
2013-03-09 01:15:00,36.3,27.5,30.31,NW,326,0.0,0.0,70,0.00,,CLR,0.00,VWS V14.01,2013-03-09 06:15:00,
2013-03-09 01:20:00,36.2,27.4,30.31,NW,326,0.0,0.0,70,0.00,,CLR,0.00,VWS V14.01,2013-03-09 06:20:00,
2013-03-09 01:25:00,36.1,27.3,30.31,NW,326,1.0,2.0,70,0.00,,CLR,0.00,VWS V14.01,2013-03-09 06:25:00,
2013-03-09 01:30:00,35.9,27.4,30.31,WNW,300,0.0,0.0,71,0.00,,CLR,0.00,VWS V14.01,2013-03-09 06:30:00,
2013-03-09 01:35:00,35.8,27.3,30.31,WNW,301,0.0,0.0,71,0.00,,CLR,0.00,VWS V14.01,2013-03-09 06:35:00,
2013-03-09 01:40:00,35.6,27.1,30.31,WNW,301,0.0,0.0,71,0.00,,CLR,0.00,VWS V14.01,2013-03-09 06:40:00,
2013-03-09 01:45:00,35.5,27.0,30.31,WNW,302,0.0,0.0,71,0.00,,CLR,0.00,VWS V14.01,2013-03-09 06:45:00,
2013-03-09 01:50:00,35.4,27.3,30.31,WNW,302,0.0,0.0,72,0.00,,CLR,0.00,VWS V14.01,2013-03-09 06:50:00,
2013-03-09 01:55:00,35.3,27.2,30.31,NW,306,0.0,2.0,72,0.00,,CLR,0.00,VWS V14.01,2013-03-09 06:55:00,
2013-03-09 02:00:00,35.3,27.2,30.31,NW,306,0.0,0.0,72,0.00,,CLR,0.00,VWS V14.01,2013-03-09 07:00:00,
2013-03-09 02:05:00,35.4,27.3,30.30,NW,306,0.0,0.0,72,0.00,,CLR,0.00,VWS V14.01,2013-03-09 07:05:00,
2013-03-09 02:10:00,35.4,27.3,30.30,NW,320,0.0,0.0,72,0.00,,CLR,0.00,VWS V14.01,2013-03-09 07:10:00,
2013-03-09 02:15:00,35.4,27.3,30.30,NNW,343,0.0,1.0,72,0.00,,CLR,0.00,VWS V14.01,2013-03-09 07:15:00,
2013-03-09 02:20:00,35.2,27.1,30.29,NNW,331,0.0,1.0,72,0.00,,CLR,0.00,VWS V14.01,2013-03-09 07:20:00,
2013-03-09 02:25:00,35.0,26.9,30.29,NNW,331,0.0,1.0,72,0.00,,CLR,0.00,VWS V14.01,2013-03-09 07:25:00,
2013-03-09 02:30:00,34.7,27.0,30.29,NNW,348,0.0,1.0,73,0.00,,CLR,0.00,VWS V14.01,2013-03-09 07:30:00,
2013-03-09 02:35:00,34.6,26.9,30.29,NNW,348,0.0,1.0,73,0.00,,CLR,0.00,VWS V14.01,2013-03-09 07:35:00,
2013-03-09 02:40:00,34.3,26.9,30.28,NNW,348,0.0,1.0,74,0.00,,CLR,0.00,VWS V14.01,2013-03-09 07:40:00,
2013-03-09 02:45:00,34.1,26.7,30.28,North,351,1.0,1.0,74,0.00,,CLR,0.00,VWS V14.01,2013-03-09 07:45:00,
2013-03-09 02:50:00,33.8,26.7,30.28,North,355,1.0,2.0,75,0.00,,CLR,0.00,VWS V14.01,2013-03-09 07:50:00,
2013-03-09 02:55:00,33.7,27.0,30.27,North,355,0.0,2.0,76,0.00,,CLR,0.00,VWS V14.01,2013-03-09 07:55:00,
2013-03-09 03:00:00,33.3,26.6,30.28,NNE,26,0.0,0.0,76,0.00,,OVC085,0.00,VWS V14.01,2013-03-09 08:00:00,
2013-03-09 03:01:00,33.7,26.6,30.27,North,355,0.0,0.0,75,0.00,,CLR,0.00,VWS V14.01,2013-03-09 08:01:00,
2013-03-09 03:06:00,33.8,26.7,30.27,North,355,0.0,0.0,75,0.00,,CLR,0.00,VWS V14.01,2013-03-09 08:06:00,
2013-03-09 03:11:00,33.8,26.7,30.27,NNW,342,0.0,0.0,75,0.00,,CLR,0.00,VWS V14.01,2013-03-09 08:11:00,
2013-03-09 03:16:00,33.7,27.0,30.27,NNW,342,0.0,0.0,76,0.00,,CLR,0.00,VWS V14.01,2013-03-09 08:16:00,
2013-03-09 03:21:00,33.5,26.8,30.27,NNW,342,0.0,0.0,76,0.00,,CLR,0.00,VWS V14.01,2013-03-09 08:21:00,
2013-03-09 03:26:00,33.6,26.5,30.27,NNW,342,0.0,0.0,75,0.00,,CLR,0.00,VWS V14.01,2013-03-09 08:26:00,
2013-03-09 03:30:00,32.9,26.2,30.29,NNE,26,0.0,0.0,76,0.00,,OVC085,0.00,VWS V14.01,2013-03-09 08:30:00,
2013-03-09 03:31:00,33.7,26.6,30.27,NNE,26,0.0,0.0,75,0.00,,CLR,0.00,VWS V14.01,2013-03-09 08:31:00,
2013-03-09 03:36:00,33.4,26.3,30.27,NNE,26,0.0,0.0,75,0.00,,CLR,0.00,VWS V14.01,2013-03-09 08:36:00,
2013-03-09 03:41:00,33.2,26.5,30.27,NNE,26,0.0,0.0,76,0.00,,CLR,0.00,VWS V14.01,2013-03-09 08:41:00,
2013-03-09 03:46:00,33.1,26.4,30.28,NNE,26,0.0,0.0,76,0.00,,CLR,0.00,VWS V14.01,2013-03-09 08:46:00,
2013-03-09 03:51:00,33.1,26.7,30.28,NNE,26,0.0,0.0,77,0.00,,CLR,0.00,VWS V14.01,2013-03-09 08:51:00,
2013-03-09 03:56:00,33.2,26.5,30.28,NNE,26,0.0,0.0,76,0.00,,CLR,0.00,VWS V14.01,2013-03-09 08:56:00,
2013-03-09 04:00:00,32.1,26.3,30.29,NNE,24,0.0,1.0,79,0.00,,OVC085,0.00,VWS V14.01,2013-03-09 09:00:00,
2013-03-09 04:01:00,33.4,26.7,30.28,NNE,26,0.0,0.0,76,0.00,,CLR,0.00,VWS V14.01,2013-03-09 09:01:00,
2013-03-09 04:06:00,33.5,26.4,30.28,NNE,26,0.0,0.0,75,0.00,,CLR,0.00,VWS V14.01,2013-03-09 09:06:00,
2013-03-09 04:11:00,33.4,26.3,30.28,NNE,26,0.0,0.0,75,0.00,,CLR,0.00,VWS V14.01,2013-03-09 09:11:00,
2013-03-09 04:16:00,33.3,26.6,30.29,NNE,26,0.0,0.0,76,0.00,,CLR,0.00,VWS V14.01,2013-03-09 09:16:00,
2013-03-09 04:21:00,33.2,26.5,30.29,NNE,26,0.0,0.0,76,0.00,,CLR,0.00,VWS V14.01,2013-03-09 09:21:00,
2013-03-09 04:26:00,33.0,26.3,30.29,NNE,26,0.0,0.0,76,0.00,,CLR,0.00,VWS V14.01,2013-03-09 09:26:00,
2013-03-09 04:30:00,32.6,26.8,30.29,NNW,342,0.0,2.0,79,0.00,,OVC085,0.00,VWS V14.01,2013-03-09 09:30:00,
2013-03-09 04:31:00,32.9,26.5,30.29,NNE,26,0.0,0.0,77,0.00,,CLR,0.00,VWS V14.01,2013-03-09 09:31:00,
2013-03-09 04:36:00,32.7,26.3,30.29,NNE,26,0.0,0.0,77,0.00,,CLR,0.00,VWS V14.01,2013-03-09 09:36:00,
2013-03-09 04:41:00,32.5,26.4,30.29,NNE,26,0.0,0.0,78,0.00,,CLR,0.00,VWS V14.01,2013-03-09 09:41:00,
2013-03-09 04:46:00,32.2,26.4,30.29,NNE,24,0.0,1.0,79,0.00,,CLR,0.00,VWS V14.01,2013-03-09 09:46:00,
2013-03-09 04:51:00,32.0,26.2,30.29,NNE,24,0.0,1.0,79,0.00,,CLR,0.00,VWS V14.01,2013-03-09 09:51:00,
2013-03-09 04:56:00,32.1,26.3,30.29,NNE,24,0.0,1.0,79,0.00,,CLR,0.00,VWS V14.01,2013-03-09 09:56:00,
2013-03-09 05:00:00,33.2,26.8,30.29,NNW,344,0.0,0.0,77,0.00,,OVC085,0.00,VWS V14.01,2013-03-09 10:00:00,
2013-03-09 05:01:00,32.1,26.3,30.29,NNE,24,0.0,0.0,79,0.00,,CLR,0.00,VWS V14.01,2013-03-09 10:01:00,
2013-03-09 05:06:00,32.1,26.3,30.29,NNE,21,0.0,1.0,79,0.00,,CLR,0.00,VWS V14.01,2013-03-09 10:06:00,
2013-03-09 05:11:00,32.0,26.2,30.29,North,349,0.0,2.0,79,0.00,,CLR,0.00,VWS V14.01,2013-03-09 10:11:00,
2013-03-09 05:16:00,32.0,26.2,30.29,North,355,0.0,2.0,79,0.00,,CLR,0.00,VWS V14.01,2013-03-09 10:16:00,
2013-03-09 05:21:00,32.2,26.4,30.29,NNW,338,0.0,2.0,79,0.00,,CLR,0.00,VWS V14.01,2013-03-09 10:21:00,
2013-03-09 05:26:00,32.5,26.7,30.29,NNW,338,0.0,2.0,79,0.00,,CLR,0.00,VWS V14.01,2013-03-09 10:26:00,
2013-03-09 05:30:00,32.9,26.8,30.30,North,355,0.0,1.0,78,0.00,,OVC085,0.00,VWS V14.01,2013-03-09 10:30:00,
2013-03-09 05:31:00,32.6,26.8,30.29,NNW,342,0.0,0.0,79,0.00,,CLR,0.00,VWS V14.01,2013-03-09 10:31:00,
2013-03-09 05:36:00,32.7,26.6,30.29,NNW,342,0.0,0.0,78,0.00,,CLR,0.00,VWS V14.01,2013-03-09 10:36:00,
2013-03-09 05:41:00,32.7,26.6,30.29,NNW,344,0.0,0.0,78,0.00,,CLR,0.00,VWS V14.01,2013-03-09 10:41:00,
2013-03-09 05:46:00,32.8,26.7,30.29,NNW,344,0.0,0.0,78,0.00,,CLR,0.00,VWS V14.01,2013-03-09 10:46:00,
2013-03-09 05:51:00,33.0,26.9,30.29,NNW,344,0.0,0.0,78,0.00,,CLR,0.00,VWS V14.01,2013-03-09 10:51:00,
2013-03-09 05:56:00,33.1,26.7,30.29,NNW,344,0.0,0.0,77,0.00,,CLR,0.00,VWS V14.01,2013-03-09 10:56:00,
2013-03-09 06:00:00,33.3,26.6,30.31,WNW,282,0.0,1.0,76,0.00,,OVC085,0.00,VWS V14.01,2013-03-09 11:00:00,
2013-03-09 06:01:00,33.2,26.8,30.29,NNW,344,0.0,0.0,77,0.00,,CLR,0.00,VWS V14.01,2013-03-09 11:01:00,
2013-03-09 06:06:00,33.2,26.8,30.29,NNW,344,0.0,0.0,77,0.00,,CLR,0.00,VWS V14.01,2013-03-09 11:06:00,
2013-03-09 06:11:00,33.2,26.8,30.30,NNW,344,0.0,0.0,77,0.00,,CLR,0.00,VWS V14.01,2013-03-09 11:11:00,
2013-03-09 06:16:00,33.0,26.6,30.30,NNW,340,0.0,0.0,77,0.00,,CLR,0.00,VWS V14.01,2013-03-09 11:16:00,
2013-03-09 06:21:00,32.9,26.5,30.30,NNW,344,0.0,1.0,77,0.00,,CLR,0.00,VWS V14.01,2013-03-09 11:21:00,
2013-03-09 06:26:00,32.8,26.4,30.30,NNW,344,0.0,1.0,77,0.00,,CLR,0.00,VWS V14.01,2013-03-09 11:26:00,
2013-03-09 06:30:00,34.4,27.3,30.32,NW,309,1.0,3.0,75,0.00,,OVC085,0.00,VWS V14.01,2013-03-09 11:30:00,
2013-03-09 06:31:00,32.9,26.5,30.30,North,355,0.0,0.0,77,0.00,,CLR,0.00,VWS V14.01,2013-03-09 11:31:00,
2013-03-09 06:36:00,33.0,26.6,30.30,North,355,0.0,0.0,77,0.00,,CLR,0.00,VWS V14.01,2013-03-09 11:36:00,
2013-03-09 06:41:00,33.1,26.7,30.30,North,5,0.0,1.0,77,0.00,,CLR,0.00,VWS V14.01,2013-03-09 11:41:00,
2013-03-09 06:46:00,33.1,26.7,30.30,North,5,0.0,1.0,77,0.00,,CLR,0.00,VWS V14.01,2013-03-09 11:46:00,
2013-03-09 06:51:00,33.2,26.8,30.30,North,5,0.0,1.0,77,0.00,,CLR,0.00,VWS V14.01,2013-03-09 11:51:00,
2013-03-09 06:56:00,33.2,26.8,30.31,WNW,286,0.0,1.0,77,0.00,,CLR,0.00,VWS V14.01,2013-03-09 11:56:00,
2013-03-09 07:00:00,37.7,28.8,30.33,NW,304,1.0,5.0,70,0.00,,OVC085,0.00,VWS V14.01,2013-03-09 12:00:00,
2013-03-09 07:01:00,33.3,26.6,30.31,WNW,283,0.0,0.0,76,0.00,,CLR,0.00,VWS V14.01,2013-03-09 12:01:00,
2013-03-09 07:06:00,33.5,26.8,30.31,WNW,283,0.0,1.0,76,0.00,,CLR,0.00,VWS V14.01,2013-03-09 12:06:00,
2013-03-09 07:11:00,33.6,26.9,30.32,WNW,300,0.0,1.0,76,0.00,,CLR,0.00,VWS V14.01,2013-03-09 12:11:00,
2013-03-09 07:16:00,33.7,27.0,30.32,WNW,292,0.0,3.0,76,0.00,,CLR,0.00,VWS V14.01,2013-03-09 12:16:00,
2013-03-09 07:21:00,33.9,27.1,30.32,NW,315,1.0,3.0,76,0.00,,CLR,0.00,VWS V14.01,2013-03-09 12:21:00,
2013-03-09 07:26:00,34.1,27.3,30.32,NW,325,0.0,3.0,76,0.00,,CLR,0.00,VWS V14.01,2013-03-09 12:26:00,
2013-03-09 07:30:00,40.5,29.7,30.34,NW,304,2.0,6.0,65,0.00,,OVC085,0.00,VWS V14.01,2013-03-09 12:30:00,
2013-03-09 07:31:00,34.7,27.6,30.32,NW,318,0.0,2.0,75,0.00,,CLR,0.00,VWS V14.01,2013-03-09 12:31:00,
2013-03-09 07:36:00,35.3,27.9,30.32,NW,311,1.0,2.0,74,0.00,,CLR,0.00,VWS V14.01,2013-03-09 12:36:00,
2013-03-09 07:41:00,36.1,28.3,30.32,NW,305,1.0,3.0,73,0.00,,CLR,0.00,VWS V14.01,2013-03-09 12:41:00,
2013-03-09 07:46:00,36.5,28.4,30.33,NNW,336,3.0,5.0,72,0.00,,CLR,0.00,VWS V14.01,2013-03-09 12:46:00,
2013-03-09 07:51:00,37.0,28.5,30.33,NW,317,2.0,5.0,71,0.00,,CLR,0.00,VWS V14.01,2013-03-09 12:51:00,
2013-03-09 07:56:00,37.4,28.5,30.33,NW,311,0.0,5.0,70,0.00,,CLR,0.00,VWS V14.01,2013-03-09 12:56:00,
2013-03-09 08:00:00,43.0,30.9,30.35,WNW,285,3.0,6.0,62,0.00,,OVC085,0.00,VWS V14.01,2013-03-09 13:00:00,
2013-03-09 08:01:00,37.8,28.9,30.33,NW,304,2.0,6.0,70,0.00,,CLR,0.00,VWS V14.01,2013-03-09 13:01:00,
2013-03-09 08:06:00,38.3,28.7,30.34,West,281,4.0,6.0,68,0.00,,CLR,0.00,VWS V14.01,2013-03-09 13:06:00,
2013-03-09 08:11:00,38.9,28.9,30.34,NW,319,1.0,6.0,67,0.00,,CLR,0.00,VWS V14.01,2013-03-09 13:11:00,
2013-03-09 08:16:00,39.3,28.9,30.34,NW,320,0.0,6.0,66,0.00,,CLR,0.00,VWS V14.01,2013-03-09 13:16:00,
2013-03-09 08:21:00,39.7,29.3,30.34,NW,319,2.0,6.0,66,0.00,,CLR,0.00,VWS V14.01,2013-03-09 13:21:00,
2013-03-09 08:26:00,40.2,30.5,30.34,NNW,342,0.0,6.0,68,0.00,,CLR,0.00,VWS V14.01,2013-03-09 13:26:00,
2013-03-09 08:30:00,45.8,31.0,30.35,WNW,292,2.0,4.0,56,0.00,,OVC085,0.00,VWS V14.01,2013-03-09 13:30:00,
2013-03-09 08:31:00,40.6,29.8,30.34,NW,315,2.0,4.0,65,0.00,,CLR,0.00,VWS V14.01,2013-03-09 13:31:00,
2013-03-09 08:36:00,41.0,29.8,30.34,NNW,327,2.0,5.0,64,0.00,,CLR,0.00,VWS V14.01,2013-03-09 13:36:00,
2013-03-09 08:41:00,41.3,29.7,30.34,WNW,294,1.0,6.0,63,0.00,,CLR,0.00,VWS V14.01,2013-03-09 13:41:00,
2013-03-09 08:46:00,41.8,30.1,30.34,NNW,327,0.0,6.0,63,0.00,,CLR,0.00,VWS V14.01,2013-03-09 13:46:00,
2013-03-09 08:51:00,42.2,30.9,30.35,WNW,300,1.0,6.0,64,0.00,,CLR,0.00,VWS V14.01,2013-03-09 13:51:00,
2013-03-09 08:56:00,42.7,31.0,30.35,WNW,302,3.0,6.0,63,0.00,,CLR,0.00,VWS V14.01,2013-03-09 13:56:00,
2013-03-09 09:00:00,48.7,31.9,30.35,WNW,294,2.0,4.0,52,0.00,,OVC085,0.00,VWS V14.01,2013-03-09 14:00:00,
2013-03-09 09:01:00,43.1,30.6,30.35,NW,321,1.0,3.0,61,0.00,,CLR,0.00,VWS V14.01,2013-03-09 14:01:00,
2013-03-09 09:06:00,43.5,30.5,30.35,NW,321,2.0,3.0,60,0.00,,CLR,0.00,VWS V14.01,2013-03-09 14:06:00,
2013-03-09 09:11:00,44.0,30.6,30.35,WNW,290,2.0,4.0,59,0.00,,CLR,0.00,VWS V14.01,2013-03-09 14:11:00,
2013-03-09 09:16:00,44.5,31.1,30.35,NW,315,1.0,4.0,59,0.00,,CLR,0.00,VWS V14.01,2013-03-09 14:16:00,
2013-03-09 09:21:00,45.0,31.1,30.35,WNW,294,0.0,4.0,58,0.00,,CLR,0.00,VWS V14.01,2013-03-09 14:21:00,
2013-03-09 09:26:00,45.6,32.1,30.35,NW,306,1.0,4.0,59,0.00,,CLR,0.00,VWS V14.01,2013-03-09 14:26:00,
2013-03-09 09:30:00,51.0,29.9,30.34,NNE,22,1.0,5.0,44,0.00,,OVC085,0.00,VWS V14.01,2013-03-09 14:30:00,
2013-03-09 09:31:00,46.0,31.6,30.35,WNW,292,1.0,3.0,57,0.00,,CLR,0.00,VWS V14.01,2013-03-09 14:31:00,
2013-03-09 09:36:00,46.5,31.7,30.35,NW,308,2.0,4.0,56,0.00,,CLR,0.00,VWS V14.01,2013-03-09 14:36:00,
2013-03-09 09:41:00,46.9,31.1,30.35,WNW,294,1.0,4.0,54,0.00,,CLR,0.00,VWS V14.01,2013-03-09 14:41:00,
2013-03-09 09:46:00,47.6,31.8,30.35,WNW,300,3.0,4.0,54,0.00,,CLR,0.00,VWS V14.01,2013-03-09 14:46:00,
2013-03-09 09:51:00,48.0,32.2,30.35,NW,321,1.0,4.0,54,0.00,,CLR,0.00,VWS V14.01,2013-03-09 14:51:00,
2013-03-09 09:56:00,48.5,30.7,30.35,West,277,1.0,4.0,50,0.00,,CLR,0.00,VWS V14.01,2013-03-09 14:56:00,
2013-03-09 10:00:00,52.4,30.6,30.33,WNW,290,3.0,6.0,43,0.00,,OVC085,0.00,VWS V14.01,2013-03-09 15:00:00,
2013-03-09 10:01:00,48.8,31.0,30.35,NW,315,1.0,5.0,50,0.00,,CLR,0.00,VWS V14.01,2013-03-09 15:01:00,
2013-03-09 10:06:00,49.0,31.7,30.34,North,355,1.0,5.0,51,0.00,,CLR,0.00,VWS V14.01,2013-03-09 15:06:00,
2013-03-09 10:11:00,49.4,31.6,30.34,NW,323,3.0,5.0,50,0.00,,CLR,0.00,VWS V14.01,2013-03-09 15:11:00,
2013-03-09 10:16:00,49.6,29.7,30.34,West,263,4.0,5.0,46,0.00,,CLR,0.00,VWS V14.01,2013-03-09 15:16:00,
2013-03-09 10:21:00,49.9,30.0,30.34,NNE,15,1.0,5.0,46,0.00,,CLR,0.00,VWS V14.01,2013-03-09 15:21:00,
2013-03-09 10:26:00,50.7,31.2,30.34,NE,44,0.0,5.0,47,0.00,,CLR,0.00,VWS V14.01,2013-03-09 15:26:00,
2013-03-09 10:30:00,54.4,31.2,30.33,NNW,341,1.0,6.0,41,0.00,,OVC085,0.00,VWS V14.01,2013-03-09 15:30:00,
2013-03-09 10:31:00,51.1,30.0,30.34,SSW,202,0.0,2.0,44,0.00,,CLR,0.00,VWS V14.01,2013-03-09 15:31:00,
2013-03-09 10:36:00,51.2,30.6,30.34,WSW,257,1.0,2.0,45,0.00,,CLR,0.00,VWS V14.01,2013-03-09 15:36:00,
2013-03-09 10:41:00,51.6,31.5,30.33,North,349,1.0,2.0,46,0.00,,CLR,0.00,VWS V14.01,2013-03-09 15:41:00,
2013-03-09 10:46:00,52.1,30.9,30.33,NNE,26,0.0,2.0,44,0.00,,CLR,0.00,VWS V14.01,2013-03-09 15:46:00,
2013-03-09 10:51:00,52.3,29.3,30.33,WNW,295,5.0,6.0,41,0.00,,CLR,0.00,VWS V14.01,2013-03-09 15:51:00,
2013-03-09 10:56:00,52.2,31.5,30.33,NW,316,1.0,6.0,45,0.00,,CLR,0.00,VWS V14.01,2013-03-09 15:56:00,
2013-03-09 11:00:00,55.7,31.1,30.32,West,263,2.0,4.0,39,0.00,,OVC085,0.00,VWS V14.01,2013-03-09 16:00:00,
2013-03-09 11:01:00,52.6,30.8,30.33,NNE,24,2.0,3.0,43,0.00,,CLR,0.00,VWS V14.01,2013-03-09 16:01:00,
2013-03-09 11:06:00,53.1,31.2,30.33,SE,140,0.0,3.0,43,0.00,,CLR,0.00,VWS V14.01,2013-03-09 16:06:00,
2013-03-09 11:11:00,53.7,31.8,30.33,NNE,33,2.0,4.0,43,0.00,,CLR,0.00,VWS V14.01,2013-03-09 16:11:00,
2013-03-09 11:16:00,53.9,31.4,30.33,South,185,0.0,4.0,42,0.00,,CLR,0.00,VWS V14.01,2013-03-09 16:16:00,
2013-03-09 11:21:00,54.2,31.6,30.33,NW,325,4.0,6.0,42,0.00,,CLR,0.00,VWS V14.01,2013-03-09 16:21:00,
2013-03-09 11:26:00,54.3,31.7,30.33,East,92,0.0,6.0,42,0.00,,CLR,0.00,VWS V14.01,2013-03-09 16:26:00,
2013-03-09 11:30:00,56.6,31.3,30.32,NW,316,2.0,6.0,38,0.00,,OVC085,0.00,VWS V14.01,2013-03-09 16:30:00,
2013-03-09 11:31:00,54.5,32.5,30.33,NNW,339,1.0,2.0,43,0.00,,CLR,0.00,VWS V14.01,2013-03-09 16:31:00,
2013-03-09 11:36:00,54.8,31.6,30.33,ENE,77,1.0,4.0,41,0.00,,CLR,0.00,VWS V14.01,2013-03-09 16:36:00,
2013-03-09 11:41:00,54.7,31.5,30.32,WSW,254,0.0,4.0,41,0.00,,CLR,0.00,VWS V14.01,2013-03-09 16:41:00,
2013-03-09 11:46:00,55.2,33.1,30.32,North,360,3.0,4.0,43,0.00,,CLR,0.00,VWS V14.01,2013-03-09 16:46:00,
2013-03-09 11:51:00,55.8,33.7,30.32,North,349,2.0,4.0,43,0.00,,CLR,0.00,VWS V14.01,2013-03-09 16:51:00,
2013-03-09 11:56:00,55.9,32.0,30.32,NW,321,2.0,4.0,40,0.00,,CLR,0.00,VWS V14.01,2013-03-09 16:56:00,
2013-03-09 12:00:00,58.0,31.2,30.30,WNW,294,3.0,8.0,36,0.00,,OVC085,0.00,VWS V14.01,2013-03-09 17:00:00,
2013-03-09 12:01:00,55.6,31.7,30.32,West,270,1.0,4.0,40,0.00,,CLR,0.00,VWS V14.01,2013-03-09 17:01:00,
2013-03-09 12:06:00,56.0,33.2,30.32,NNW,344,2.0,4.0,42,0.00,,CLR,0.00,VWS V14.01,2013-03-09 17:06:00,
2013-03-09 12:12:00,56.2,31.6,30.32,West,278,2.0,4.0,39,0.00,,CLR,0.00,VWS V14.01,2013-03-09 17:12:00,
2013-03-09 12:17:00,56.2,32.2,30.32,SSE,154,4.0,4.0,40,0.00,,CLR,0.00,VWS V14.01,2013-03-09 17:17:00,
2013-03-09 12:22:00,56.2,33.4,30.32,SSE,153,1.0,5.0,42,0.00,,CLR,0.00,VWS V14.01,2013-03-09 17:22:00,
2013-03-09 12:27:00,56.5,32.5,30.32,NW,320,0.0,5.0,40,0.00,,CLR,0.00,VWS V14.01,2013-03-09 17:27:00,
2013-03-09 12:30:00,59.3,31.7,30.28,SE,142,2.0,9.0,35,0.00,,OVC085,0.00,VWS V14.01,2013-03-09 17:30:00,
2013-03-09 12:32:00,56.6,32.0,30.31,East,88,2.0,3.0,39,0.00,,CLR,0.00,VWS V14.01,2013-03-09 17:32:00,
2013-03-09 12:37:00,57.1,31.8,30.31,WNW,298,4.0,4.0,38,0.00,,CLR,0.00,VWS V14.01,2013-03-09 17:37:00,
2013-03-09 12:42:00,57.4,32.0,30.31,SSE,163,0.0,4.0,38,0.00,,CLR,0.00,VWS V14.01,2013-03-09 17:42:00,
2013-03-09 12:47:00,58.0,33.2,30.31,WNW,290,4.0,4.0,39,0.00,,CLR,0.00,VWS V14.01,2013-03-09 17:47:00,
2013-03-09 12:52:00,58.1,30.6,30.30,West,265,6.0,7.0,35,0.00,,CLR,0.00,VWS V14.01,2013-03-09 17:52:00,
2013-03-09 12:57:00,57.9,31.8,30.30,NNW,333,3.0,8.0,37,0.00,,CLR,0.00,VWS V14.01,2013-03-09 17:57:00,
2013-03-09 13:00:00,60.6,30.6,30.27,WNW,285,1.0,5.0,32,0.00,,OVC085,0.00,VWS V14.01,2013-03-09 18:00:00,
2013-03-09 13:02:00,57.8,30.4,30.30,NNE,22,2.0,5.0,35,0.00,,CLR,0.00,VWS V14.01,2013-03-09 18:02:00,
2013-03-09 13:07:00,57.9,32.5,30.30,SE,133,0.0,5.0,38,0.00,,CLR,0.00,VWS V14.01,2013-03-09 18:07:00,
2013-03-09 13:12:00,58.5,32.3,30.29,ESE,106,3.0,6.0,37,0.00,,CLR,0.00,VWS V14.01,2013-03-09 18:12:00,
2013-03-09 13:17:00,59.1,32.9,30.29,East,91,2.0,6.0,37,0.00,,CLR,0.00,VWS V14.01,2013-03-09 18:17:00,
2013-03-09 13:22:00,59.0,30.7,30.28,SSE,148,2.0,9.0,34,0.00,,CLR,0.00,VWS V14.01,2013-03-09 18:22:00,
2013-03-09 13:27:00,59.2,33.0,30.28,NE,50,1.0,9.0,37,0.00,,CLR,0.00,VWS V14.01,2013-03-09 18:27:00,
2013-03-09 13:30:00,61.0,27.7,30.26,NNE,15,2.0,9.0,28,0.00,,OVC085,0.00,VWS V14.01,2013-03-09 18:30:00,
2013-03-09 13:32:00,59.5,31.1,30.28,SSW,210,1.0,2.0,34,0.00,,CLR,0.00,VWS V14.01,2013-03-09 18:32:00,
2013-03-09 13:37:00,59.8,30.7,30.28,West,275,2.0,3.0,33,0.00,,CLR,0.00,VWS V14.01,2013-03-09 18:37:00,
2013-03-09 13:42:00,60.4,31.2,30.28,NW,317,4.0,4.0,33,0.00,,CLR,0.00,VWS V14.01,2013-03-09 18:42:00,
2013-03-09 13:47:00,60.0,30.1,30.27,NNW,330,1.0,5.0,32,0.00,,CLR,0.00,VWS V14.01,2013-03-09 18:47:00,
2013-03-09 13:52:00,60.2,31.0,30.27,SE,138,1.0,5.0,33,0.00,,CLR,0.00,VWS V14.01,2013-03-09 18:52:00,
2013-03-09 13:57:00,60.5,31.3,30.27,West,280,0.0,5.0,33,0.00,,CLR,0.00,VWS V14.01,2013-03-09 18:57:00,
2013-03-09 14:00:00,62.6,29.1,30.26,ENE,77,0.0,7.0,28,0.00,,OVC085,0.00,VWS V14.01,2013-03-09 19:00:00,
2013-03-09 14:02:00,60.9,31.6,30.27,NNE,20,2.0,3.0,33,0.00,,CLR,0.00,VWS V14.01,2013-03-09 19:02:00,
2013-03-09 14:07:00,61.3,28.8,30.27,East,95,3.0,9.0,29,0.00,,CLR,0.00,VWS V14.01,2013-03-09 19:07:00,
2013-03-09 14:12:00,60.8,29.2,30.27,ENE,66,2.0,9.0,30,0.00,,CLR,0.00,VWS V14.01,2013-03-09 19:12:00,
2013-03-09 14:17:00,60.7,27.4,30.27,ESE,121,5.0,9.0,28,0.00,,CLR,0.00,VWS V14.01,2013-03-09 19:17:00,
2013-03-09 14:22:00,60.6,27.3,30.27,South,179,3.0,9.0,28,0.00,,CLR,0.00,VWS V14.01,2013-03-09 19:22:00,
2013-03-09 14:27:00,60.8,28.4,30.26,ENE,67,1.0,9.0,29,0.00,,CLR,0.00,VWS V14.01,2013-03-09 19:27:00,
2013-03-09 14:30:00,62.1,28.6,30.25,South,182,1.0,5.0,28,0.00,,OVC085,0.00,VWS V14.01,2013-03-09 19:30:00,
2013-03-09 14:32:00,61.1,26.9,30.26,NNE,17,1.0,2.0,27,0.00,,CLR,0.00,VWS V14.01,2013-03-09 19:32:00,
2013-03-09 14:37:00,61.5,29.8,30.26,East,96,6.0,6.0,30,0.00,,CLR,0.00,VWS V14.01,2013-03-09 19:37:00,
2013-03-09 14:42:00,61.4,29.7,30.26,ENE,74,2.0,7.0,30,0.00,,CLR,0.00,VWS V14.01,2013-03-09 19:42:00,
2013-03-09 14:47:00,62.0,29.4,30.26,North,355,1.0,7.0,29,0.00,,CLR,0.00,VWS V14.01,2013-03-09 19:47:00,
2013-03-09 14:52:00,62.5,30.7,30.26,NW,313,1.0,7.0,30,0.00,,CLR,0.00,VWS V14.01,2013-03-09 19:52:00,
2013-03-09 14:57:00,62.7,30.8,30.25,East,97,2.0,7.0,30,0.00,,CLR,0.00,VWS V14.01,2013-03-09 19:57:00,
2013-03-09 15:00:00,63.1,29.5,30.25,NNE,14,0.0,5.0,28,0.00,,OVC085,0.00,VWS V14.01,2013-03-09 20:00:00,
2013-03-09 15:02:00,62.8,29.2,30.25,NNE,21,3.0,3.0,28,0.00,,CLR,0.00,VWS V14.01,2013-03-09 20:02:00,
2013-03-09 15:07:00,62.8,29.2,30.25,West,265,2.0,4.0,28,0.00,,CLR,0.00,VWS V14.01,2013-03-09 20:07:00,
2013-03-09 15:12:00,61.9,28.5,30.25,West,280,2.0,5.0,28,0.00,,CLR,0.00,VWS V14.01,2013-03-09 20:12:00,
2013-03-09 15:17:00,62.1,31.1,30.25,NW,311,0.0,5.0,31,0.00,,CLR,0.00,VWS V14.01,2013-03-09 20:17:00,
2013-03-09 15:22:00,62.0,28.5,30.25,NW,309,3.0,5.0,28,0.00,,CLR,0.00,VWS V14.01,2013-03-09 20:22:00,
2013-03-09 15:27:00,62.1,27.8,30.25,East,95,0.0,5.0,27,0.00,,CLR,0.00,VWS V14.01,2013-03-09 20:27:00,
2013-03-09 15:30:00,62.8,28.4,30.24,ENE,57,0.0,4.0,27,0.00,,OVC085,0.00,VWS V14.01,2013-03-09 20:30:00,
2013-03-09 15:32:00,62.2,28.7,30.25,NW,321,2.0,3.0,28,0.00,,CLR,0.00,VWS V14.01,2013-03-09 20:32:00,
2013-03-09 15:37:00,62.7,30.8,30.25,ENE,72,3.0,4.0,30,0.00,,CLR,0.00,VWS V14.01,2013-03-09 20:37:00,
2013-03-09 15:42:00,62.8,30.9,30.25,ENE,59,1.0,5.0,30,0.00,,CLR,0.00,VWS V14.01,2013-03-09 20:42:00,
2013-03-09 15:47:00,62.9,30.2,30.25,North,360,3.0,5.0,29,0.00,,CLR,0.00,VWS V14.01,2013-03-09 20:47:00,
2013-03-09 15:52:00,62.9,31.8,30.25,North,5,2.0,5.0,31,0.00,,CLR,0.00,VWS V14.01,2013-03-09 20:52:00,
2013-03-09 15:57:00,63.1,30.4,30.25,North,360,3.0,5.0,29,0.00,,CLR,0.00,VWS V14.01,2013-03-09 20:57:00,
2013-03-09 16:00:00,62.7,29.1,30.24,ENE,70,1.0,4.0,28,0.00,,OVC085,0.00,VWS V14.01,2013-03-09 21:00:00,
2013-03-09 16:02:00,63.1,29.5,30.25,NNW,348,1.0,2.0,28,0.00,,CLR,0.00,VWS V14.01,2013-03-09 21:02:00,
2013-03-09 16:07:00,63.2,31.3,30.25,WNW,290,1.0,2.0,30,0.00,,CLR,0.00,VWS V14.01,2013-03-09 21:07:00,
2013-03-09 16:12:00,63.1,29.5,30.25,NE,46,1.0,4.0,28,0.00,,CLR,0.00,VWS V14.01,2013-03-09 21:12:00,
2013-03-09 16:17:00,62.6,29.1,30.25,SSE,151,0.0,4.0,28,0.00,,CLR,0.00,VWS V14.01,2013-03-09 21:17:00,
2013-03-09 16:22:00,62.3,29.7,30.24,SE,132,0.0,4.0,29,0.00,,CLR,0.00,VWS V14.01,2013-03-09 21:22:00,
2013-03-09 16:27:00,62.6,30.8,30.24,SE,144,0.0,4.0,30,0.00,,CLR,0.00,VWS V14.01,2013-03-09 21:27:00,
2013-03-09 16:30:00,61.8,29.2,30.24,ENE,76,1.0,6.0,29,0.00,,OVC085,0.00,VWS V14.01,2013-03-09 21:30:00,
2013-03-09 16:32:00,63.0,28.5,30.24,ENE,65,0.0,3.0,27,0.00,,CLR,0.00,VWS V14.01,2013-03-09 21:32:00,
2013-03-09 16:37:00,63.0,29.4,30.24,NNE,19,3.0,3.0,28,0.00,,CLR,0.00,VWS V14.01,2013-03-09 21:37:00,
2013-03-09 16:42:00,62.8,28.4,30.24,NNE,33,1.0,4.0,27,0.00,,CLR,0.00,VWS V14.01,2013-03-09 21:42:00,
2013-03-09 16:47:00,62.5,27.2,30.24,West,259,2.0,4.0,26,0.00,,CLR,0.00,VWS V14.01,2013-03-09 21:47:00,
2013-03-09 16:52:00,62.5,27.2,30.24,WSW,254,0.0,4.0,26,0.00,,CLR,0.00,VWS V14.01,2013-03-09 21:52:00,
2013-03-09 16:57:00,62.7,29.1,30.24,NNE,21,2.0,4.0,28,0.00,,CLR,0.00,VWS V14.01,2013-03-09 21:57:00,
2013-03-09 17:00:00,59.9,29.2,30.25,SE,128,0.0,4.0,31,0.00,,OVC085,0.00,VWS V14.01,2013-03-09 22:00:00,
2013-03-09 17:02:00,62.9,27.5,30.24,ESE,117,3.0,3.0,26,0.00,,CLR,0.00,VWS V14.01,2013-03-09 22:02:00,
2013-03-09 17:07:00,62.7,28.3,30.24,SE,132,2.0,5.0,27,0.00,,CLR,0.00,VWS V14.01,2013-03-09 22:07:00,
2013-03-09 17:12:00,62.4,29.8,30.24,ESE,107,0.0,5.0,29,0.00,,CLR,0.00,VWS V14.01,2013-03-09 22:12:00,
2013-03-09 17:17:00,62.4,28.9,30.24,East,94,5.0,5.0,28,0.00,,CLR,0.00,VWS V14.01,2013-03-09 22:17:00,
2013-03-09 17:22:00,62.0,29.4,30.23,ENE,58,2.0,6.0,29,0.00,,CLR,0.00,VWS V14.01,2013-03-09 22:22:00,
2013-03-09 17:27:00,61.8,29.2,30.24,ENE,75,0.0,6.0,29,0.00,,CLR,0.00,VWS V14.01,2013-03-09 22:27:00,
2013-03-09 17:30:00,57.6,30.2,30.25,ESE,113,0.0,3.0,35,0.00,,OVC085,0.00,VWS V14.01,2013-03-09 22:30:00,
2013-03-09 17:32:00,61.7,30.0,30.24,ENE,76,0.0,2.0,30,0.00,,CLR,0.00,VWS V14.01,2013-03-09 22:32:00,
2013-03-09 17:37:00,61.3,27.9,30.24,SSE,151,2.0,4.0,28,0.00,,CLR,0.00,VWS V14.01,2013-03-09 22:37:00,
2013-03-09 17:42:00,61.0,27.7,30.24,ESE,122,0.0,4.0,28,0.00,,CLR,0.00,VWS V14.01,2013-03-09 22:42:00,
2013-03-09 17:47:00,60.7,28.3,30.24,ESE,121,0.0,4.0,29,0.00,,CLR,0.00,VWS V14.01,2013-03-09 22:47:00,
2013-03-09 17:52:00,60.3,27.9,30.24,SE,126,0.0,4.0,29,0.00,,CLR,0.00,VWS V14.01,2013-03-09 22:52:00,
2013-03-09 17:57:00,60.0,29.3,30.25,SE,128,0.0,4.0,31,0.00,,CLR,0.00,VWS V14.01,2013-03-09 22:57:00,
2013-03-09 18:00:00,53.1,28.2,30.26,ESE,113,0.0,0.0,38,0.00,,OVC085,0.00,VWS V14.01,2013-03-09 23:00:00,
2013-03-09 18:02:00,59.7,29.0,30.25,SE,127,0.0,1.0,31,0.00,,CLR,0.00,VWS V14.01,2013-03-09 23:02:00,
2013-03-09 18:07:00,59.4,28.8,30.25,SE,127,0.0,1.0,31,0.00,,CLR,0.00,VWS V14.01,2013-03-09 23:07:00,
2013-03-09 18:12:00,59.0,28.4,30.25,SE,127,0.0,1.0,31,0.00,,CLR,0.00,VWS V14.01,2013-03-09 23:12:00,
2013-03-09 18:17:00,58.6,28.1,30.25,ESE,113,0.0,3.0,31,0.00,,CLR,0.00,VWS V14.01,2013-03-09 23:17:00,
2013-03-09 18:22:00,58.2,27.7,30.25,ESE,113,0.0,3.0,31,0.00,,CLR,0.00,VWS V14.01,2013-03-09 23:22:00,
2013-03-09 18:27:00,57.7,27.3,30.25,ESE,113,0.0,3.0,31,0.00,,CLR,0.00,VWS V14.01,2013-03-09 23:27:00,
2013-03-09 18:30:00,49.3,33.4,30.26,ESE,113,0.0,0.0,54,0.00,,OVC085,0.00,VWS V14.01,2013-03-09 23:30:00,
2013-03-09 18:32:00,57.1,31.1,30.25,ESE,113,0.0,0.0,37,0.00,,CLR,0.00,VWS V14.01,2013-03-09 23:32:00,
2013-03-09 18:37:00,56.3,31.0,30.25,ESE,113,0.0,0.0,38,0.00,,CLR,0.00,VWS V14.01,2013-03-09 23:37:00,
2013-03-09 18:42:00,55.3,30.8,30.25,ESE,113,0.0,0.0,39,0.00,,CLR,0.00,VWS V14.01,2013-03-09 23:42:00,
2013-03-09 18:47:00,54.5,32.5,30.25,ESE,113,0.0,0.0,43,0.00,,CLR,0.00,VWS V14.01,2013-03-09 23:47:00,
2013-03-09 18:52:00,53.8,29.4,30.25,ESE,113,0.0,0.0,39,0.00,,CLR,0.00,VWS V14.01,2013-03-09 23:52:00,
2013-03-09 18:57:00,53.3,29.0,30.26,ESE,113,0.0,0.0,39,0.00,,CLR,0.00,VWS V14.01,2013-03-09 23:57:00,
2013-03-09 19:00:00,45.9,33.2,30.26,ESE,113,0.0,0.0,61,0.00,,OVC085,0.00,VWS V14.01,2013-03-10 00:00:00,
2013-03-09 19:02:00,52.9,29.2,30.26,ESE,113,0.0,0.0,40,0.00,,CLR,0.00,VWS V14.01,2013-03-10 00:02:00,
2013-03-09 19:07:00,52.4,30.0,30.26,ESE,113,0.0,0.0,42,0.00,,CLR,0.00,VWS V14.01,2013-03-10 00:07:00,
2013-03-09 19:12:00,51.7,31.1,30.26,ESE,113,0.0,0.0,45,0.00,,CLR,0.00,VWS V14.01,2013-03-10 00:12:00,
2013-03-09 19:17:00,51.0,32.5,30.26,ESE,113,0.0,0.0,49,0.00,,CLR,0.00,VWS V14.01,2013-03-10 00:17:00,
2013-03-09 19:22:00,50.3,32.4,30.26,ESE,113,0.0,0.0,50,0.00,,CLR,0.00,VWS V14.01,2013-03-10 00:22:00,
2013-03-09 19:27:00,49.6,33.2,30.26,ESE,113,0.0,0.0,53,0.00,,CLR,0.00,VWS V14.01,2013-03-10 00:27:00,
2013-03-09 19:30:00,43.5,32.5,30.26,ESE,113,0.0,0.0,65,0.00,,OVC085,0.00,VWS V14.01,2013-03-10 00:30:00,
2013-03-09 19:32:00,49.0,33.5,30.26,ESE,113,0.0,0.0,55,0.00,,CLR,0.00,VWS V14.01,2013-03-10 00:32:00,
2013-03-09 19:37:00,48.3,32.4,30.26,ESE,113,0.0,0.0,54,0.00,,CLR,0.00,VWS V14.01,2013-03-10 00:37:00,
2013-03-09 19:42:00,47.8,32.9,30.26,ESE,113,0.0,0.0,56,0.00,,CLR,0.00,VWS V14.01,2013-03-10 00:42:00,
2013-03-09 19:47:00,47.3,34.1,30.26,ESE,113,0.0,0.0,60,0.00,,CLR,0.00,VWS V14.01,2013-03-10 00:47:00,
2013-03-09 19:52:00,46.8,33.7,30.26,ESE,113,0.0,0.0,60,0.00,,CLR,0.00,VWS V14.01,2013-03-10 00:52:00,
2013-03-09 19:57:00,46.2,32.2,30.26,ESE,113,0.0,0.0,58,0.00,,CLR,0.00,VWS V14.01,2013-03-10 00:57:00,
2013-03-09 20:00:00,41.2,32.9,30.27,ESE,113,0.0,0.0,72,0.00,,OVC085,0.00,VWS V14.01,2013-03-10 01:00:00,
2013-03-09 20:02:00,45.6,31.7,30.26,ESE,113,0.0,0.0,58,0.00,,CLR,0.00,VWS V14.01,2013-03-10 01:02:00,
2013-03-09 20:07:00,45.1,32.9,30.26,ESE,113,0.0,0.0,62,0.00,,CLR,0.00,VWS V14.01,2013-03-10 01:07:00,
2013-03-09 20:12:00,44.6,32.8,30.26,ESE,113,0.0,0.0,63,0.00,,CLR,0.00,VWS V14.01,2013-03-10 01:12:00,
2013-03-09 20:17:00,44.0,31.4,30.26,ESE,113,0.0,0.0,61,0.00,,CLR,0.00,VWS V14.01,2013-03-10 01:17:00,
2013-03-09 20:22:00,43.7,31.1,30.26,ESE,113,0.0,0.0,61,0.00,,CLR,0.00,VWS V14.01,2013-03-10 01:22:00,
2013-03-09 20:27:00,43.6,30.6,30.26,ESE,113,0.0,0.0,60,0.00,,CLR,0.00,VWS V14.01,2013-03-10 01:27:00,
2013-03-09 20:30:00,39.6,31.7,30.28,ESE,113,0.0,0.0,73,0.00,,OVC085,0.00,VWS V14.01,2013-03-10 01:30:00,
2013-03-09 20:32:00,43.3,33.1,30.26,ESE,113,0.0,0.0,67,0.00,,CLR,0.00,VWS V14.01,2013-03-10 01:32:00,
2013-03-09 20:37:00,42.7,33.6,30.27,ESE,113,0.0,0.0,70,0.00,,CLR,0.00,VWS V14.01,2013-03-10 01:37:00,
2013-03-09 20:42:00,42.1,32.7,30.26,ESE,113,0.0,0.0,69,0.00,,CLR,0.00,VWS V14.01,2013-03-10 01:42:00,
2013-03-09 20:47:00,41.7,31.9,30.26,ESE,113,0.0,0.0,68,0.00,,CLR,0.00,VWS V14.01,2013-03-10 01:47:00,
2013-03-09 20:52:00,41.5,32.1,30.27,ESE,113,0.0,0.0,69,0.00,,CLR,0.00,VWS V14.01,2013-03-10 01:52:00,
2013-03-09 20:57:00,41.4,32.7,30.27,ESE,113,0.0,0.0,71,0.00,,CLR,0.00,VWS V14.01,2013-03-10 01:57:00,
2013-03-09 21:00:00,38.2,31.0,30.28,ESE,113,0.0,0.0,75,0.00,,OVC085,0.00,VWS V14.01,2013-03-10 02:00:00,
2013-03-09 21:02:00,41.0,33.0,30.27,ESE,113,0.0,0.0,73,0.00,,CLR,0.00,VWS V14.01,2013-03-10 02:02:00,
2013-03-09 21:07:00,40.8,31.8,30.27,ESE,113,0.0,0.0,70,0.00,,CLR,0.00,VWS V14.01,2013-03-10 02:07:00,
2013-03-09 21:12:00,40.5,31.1,30.27,ESE,113,0.0,0.0,69,0.00,,CLR,0.00,VWS V14.01,2013-03-10 02:12:00,
2013-03-09 21:17:00,40.2,31.6,30.28,ESE,113,0.0,0.0,71,0.00,,CLR,0.00,VWS V14.01,2013-03-10 02:17:00,
2013-03-09 21:22:00,39.8,31.5,30.28,ESE,113,0.0,0.0,72,0.00,,CLR,0.00,VWS V14.01,2013-03-10 02:22:00,
2013-03-09 21:27:00,39.6,31.7,30.28,ESE,113,0.0,0.0,73,0.00,,CLR,0.00,VWS V14.01,2013-03-10 02:27:00,
2013-03-09 21:30:00,36.6,31.6,30.28,ESE,113,0.0,0.0,82,0.00,,OVC085,0.00,VWS V14.01,2013-03-10 02:30:00,
2013-03-09 21:32:00,39.4,31.5,30.28,ESE,113,0.0,0.0,73,0.00,,CLR,0.00,VWS V14.01,2013-03-10 02:32:00,
2013-03-09 21:37:00,39.2,32.0,30.28,ESE,113,0.0,0.0,75,0.00,,CLR,0.00,VWS V14.01,2013-03-10 02:37:00,
2013-03-09 21:42:00,39.0,31.4,30.28,ESE,113,0.0,0.0,74,0.00,,CLR,0.00,VWS V14.01,2013-03-10 02:42:00,
2013-03-09 21:47:00,38.8,30.9,30.28,ESE,113,0.0,0.0,73,0.00,,CLR,0.00,VWS V14.01,2013-03-10 02:47:00,
2013-03-09 21:52:00,38.6,31.4,30.28,ESE,113,0.0,0.0,75,0.00,,CLR,0.00,VWS V14.01,2013-03-10 02:52:00,
2013-03-09 21:57:00,38.3,31.1,30.28,ESE,113,0.0,0.0,75,0.00,,CLR,0.00,VWS V14.01,2013-03-10 02:57:00,
2013-03-09 22:00:00,36.1,30.8,30.29,ESE,113,0.0,0.0,81,0.00,,OVC085,0.00,VWS V14.01,2013-03-10 03:00:00,
2013-03-09 22:02:00,38.1,31.5,30.28,ESE,113,0.0,0.0,77,0.00,,CLR,0.00,VWS V14.01,2013-03-10 03:02:00,
2013-03-09 22:07:00,37.6,31.4,30.28,ESE,113,0.0,0.0,78,0.00,,CLR,0.00,VWS V14.01,2013-03-10 03:07:00,
2013-03-09 22:12:00,37.3,31.4,30.28,ESE,113,0.0,0.0,79,0.00,,CLR,0.00,VWS V14.01,2013-03-10 03:12:00,
2013-03-09 22:17:00,37.0,31.1,30.28,ESE,113,0.0,0.0,79,0.00,,CLR,0.00,VWS V14.01,2013-03-10 03:17:00,
2013-03-09 22:22:00,36.8,31.2,30.28,ESE,113,0.0,0.0,80,0.00,,CLR,0.00,VWS V14.01,2013-03-10 03:22:00,
2013-03-09 22:27:00,36.6,31.6,30.28,ESE,113,0.0,0.0,82,0.00,,CLR,0.00,VWS V14.01,2013-03-10 03:27:00,
2013-03-09 22:30:00,35.1,30.5,30.29,ESE,113,0.0,0.0,83,0.00,,OVC085,0.00,VWS V14.01,2013-03-10 03:30:00,
2013-03-09 22:32:00,36.5,31.5,30.28,ESE,113,0.0,0.0,82,0.00,,CLR,0.00,VWS V14.01,2013-03-10 03:32:00,
2013-03-09 22:37:00,36.3,31.3,30.28,ESE,113,0.0,0.0,82,0.00,,CLR,0.00,VWS V14.01,2013-03-10 03:37:00,
2013-03-09 22:42:00,36.1,31.1,30.28,ESE,113,0.0,0.0,82,0.00,,CLR,0.00,VWS V14.01,2013-03-10 03:42:00,
2013-03-09 22:47:00,36.0,31.0,30.29,ESE,113,0.0,0.0,82,0.00,,CLR,0.00,VWS V14.01,2013-03-10 03:47:00,
2013-03-09 22:52:00,35.9,30.6,30.29,ESE,113,0.0,0.0,81,0.00,,CLR,0.00,VWS V14.01,2013-03-10 03:52:00,
2013-03-09 22:57:00,36.0,31.0,30.28,ESE,113,0.0,0.0,82,0.00,,CLR,0.00,VWS V14.01,2013-03-10 03:57:00,
2013-03-09 23:00:00,34.4,29.5,30.29,ESE,113,0.0,0.0,82,0.00,,OVC085,0.00,VWS V14.01,2013-03-10 04:00:00,
2013-03-09 23:02:00,36.1,30.8,30.28,ESE,113,0.0,0.0,81,0.00,,CLR,0.00,VWS V14.01,2013-03-10 04:02:00,
2013-03-09 23:07:00,36.0,31.0,30.29,ESE,113,0.0,0.0,82,0.00,,CLR,0.00,VWS V14.01,2013-03-10 04:07:00,
2013-03-09 23:12:00,35.7,30.8,30.29,ESE,113,0.0,0.0,82,0.00,,CLR,0.00,VWS V14.01,2013-03-10 04:12:00,
2013-03-09 23:18:00,35.5,30.9,30.29,ESE,113,0.0,0.0,83,0.00,,CLR,0.00,VWS V14.01,2013-03-10 04:18:00,
2013-03-09 23:22:00,35.2,30.6,30.29,ESE,113,0.0,0.0,83,0.00,,CLR,0.00,VWS V14.01,2013-03-10 04:22:00,
2013-03-09 23:28:00,35.2,30.6,30.29,ESE,113,0.0,0.0,83,0.00,,CLR,0.00,VWS V14.01,2013-03-10 04:28:00,
2013-03-09 23:30:00,33.8,29.5,30.29,ESE,113,0.0,0.0,84,0.00,,OVC085,0.00,VWS V14.01,2013-03-10 04:30:00,
2013-03-09 23:33:00,35.1,30.5,30.29,ESE,113,0.0,0.0,83,0.00,,CLR,0.00,VWS V14.01,2013-03-10 04:33:00,
2013-03-09 23:38:00,35.0,30.1,30.29,ESE,113,0.0,0.0,82,0.00,,CLR,0.00,VWS V14.01,2013-03-10 04:38:00,
2013-03-09 23:42:00,34.8,30.2,30.29,ESE,113,0.0,0.0,83,0.00,,CLR,0.00,VWS V14.01,2013-03-10 04:42:00,
2013-03-09 23:48:00,34.7,30.1,30.29,ESE,113,0.0,0.0,83,0.00,,CLR,0.00,VWS V14.01,2013-03-10 04:48:00,
2013-03-09 23:53:00,34.6,30.3,30.29,ESE,113,0.0,0.0,84,0.00,,CLR,0.00,VWS V14.01,2013-03-10 04:53:00,
2013-03-09 23:58:00,34.5,29.9,30.29,ESE,113,0.0,0.0,83,0.00,,CLR,0.00,VWS V14.01,2013-03-10 04:58:00,